Weather History for KPIA - May, 2014

Change the Weather History Date:

Monday, May 26, 2014

  Actual Average Record
Temperature  
Mean Temperature 78 °F 66 °F  
Max Temperature 90 °F 76 °F 95 °F (1911)
Min Temperature 65 °F 55 °F 34 °F (1979)
Degree Days  
Heating Degree Days 0 3  
Month to date heating degree days 119 136  
Since 1 July heating degree days 6586 5801  
Cooling Degree Days 13 3  
Month to date cooling degree days 97 48  
Year to date cooling degree days 103 62  
Growing Degree Days 27 (Base 50)    
Moisture  
Dew Point 63 °F    
Average Humidity 63    
Maximum Humidity 84    
Minimum Humidity 41    
Precipitation  
Precipitation 0.11 in 0.14 in 1.80 in (1922)
Month to date precipitation 1.31 3.69  
Year to date precipitation 11.84 13.69  
Snow  
Snow 0.00 in 0.00 in 0.00 in ()
Month to date snowfall 0.0 0.0  
Since 1 July snowfall 57.6 24.6  
Snow Depth 0.00 in    
Sea Level Pressure  
Sea Level Pressure 29.98 in    
Wind  
Wind Speed 8 mph (SSW)    
Max Wind Speed 17 mph    
Max Gust Speed 22 mph    
Visibility 9 miles    
Events Rain , Thunderstorm    
T = Trace of Precipitation, MM = Missing Value Source: NWS Daily Summary

Daily Weather History Graph

Daily Weather History Graph

Search for Another Location

Airport or City:

Trip Planner

Search our weather history database for the weather conditions in past years. The results will help you decide how hot, cold, wet, or windy it might be!

Date:

Astronomy

May. 26, 2014 Rise Set
Actual Time 5:33 AM CDT 8:18 PM CDT
Civil Twilight 5:01 AM CDT 8:51 PM CDT
Nautical Twilight 4:20 AM CDT 9:31 PM CDT
Astronomical Twilight 3:34 AM CDT 10:17 PM CDT
Moon 4:15 AM CDT (5/26) 6:20 PM CDT (5/26)
Length of Visible Light 15h 50m
Length of Day
14h 45m
Waning Crescent, 5% of the Moon is Illuminated
May 26
Waning Crescent
May 28
New
Jun 5
First Quarter
Jun 12
Full
Jun 19
Last Quarter

Hourly Weather History & Observations

Time (CDT) Temp. Heat Index Dew Point Humidity Pressure Visibility Wind Dir Wind Speed Gust Speed Precip Events Conditions
12:54 AM 68.0 °F - 57.0 °F 68% 30.04 in 10.0 mi South 4.6 mph - N/A   Clear
1:54 AM 68.0 °F - 57.0 °F 68% 30.03 in 10.0 mi South 3.5 mph - N/A   Clear
2:54 AM 66.9 °F - 55.9 °F 68% 30.02 in 10.0 mi South 5.8 mph - N/A   Clear
3:54 AM 66.0 °F - 55.9 °F 70% 30.01 in 10.0 mi Calm Calm - N/A   Clear
4:54 AM 66.0 °F - 55.9 °F 70% 30.01 in 10.0 mi South 4.6 mph - N/A   Clear
5:54 AM 64.9 °F - 55.9 °F 73% 30.02 in 10.0 mi SSE 3.5 mph - N/A   Clear
6:54 AM 68.0 °F - 59.0 °F 73% 30.03 in 9.0 mi South 8.1 mph - N/A   Clear
7:54 AM 70.0 °F - 61.0 °F 73% 30.04 in 8.0 mi South 8.1 mph - N/A   Clear
8:54 AM 73.9 °F - 63.0 °F 68% 30.04 in 10.0 mi South 4.6 mph - N/A   Clear
9:54 AM 75.9 °F - 64.0 °F 67% 30.03 in 10.0 mi South 5.8 mph - N/A   Clear
10:54 AM 81.0 °F 82.7 °F 64.9 °F 58% 30.02 in 10.0 mi SSE 6.9 mph - N/A   Clear
11:54 AM 84.9 °F 87.1 °F 66.0 °F 53% 30.01 in 10.0 mi Variable 3.5 mph - N/A   Clear
12:54 PM 87.1 °F 88.3 °F 64.0 °F 46% 29.99 in 10.0 mi SW 9.2 mph - N/A   Partly Cloudy
1:54 PM 89.1 °F 90.3 °F 64.0 °F 43% 29.96 in 10.0 mi SSW 11.5 mph - N/A   Clear
2:54 PM 89.1 °F 90.0 °F 63.0 °F 42% 29.94 in 10.0 mi South 12.7 mph - N/A   Scattered Clouds
3:54 PM 87.1 °F 87.5 °F 62.1 °F 43% 29.91 in 10.0 mi SSW 13.8 mph 20.7 mph N/A   Mostly Cloudy
4:54 PM 88.0 °F 89.3 °F 64.0 °F 45% 29.91 in 10.0 mi WSW 11.5 mph - N/A   Scattered Clouds
5:21 PM 88.0 °F 88.7 °F 63.0 °F 43% 29.92 in 10.0 mi WSW 12.7 mph - N/A Thunderstorm Partly Cloudy
5:36 PM 82.0 °F 84.1 °F 66.0 °F 58% 29.93 in 10.0 mi NNW 4.6 mph - N/A   Partly Cloudy
5:51 PM 78.8 °F - 66.2 °F 65% 29.94 in 2.5 mi WNW 11.5 mph - 0.00 in Rain , Thunderstorm Light Rain
5:54 PM 75.9 °F - 66.9 °F 74% 29.93 in 1.5 mi NW 8.1 mph - 0.07 in Rain , Thunderstorm Heavy Rain
6:02 PM 75.9 °F - 68.0 °F 76% 29.94 in 3.0 mi WSW 3.5 mph - 0.04 in Rain , Thunderstorm Light Rain
6:10 PM 75.9 °F - 69.1 °F 79% 29.94 in 10.0 mi SE 5.8 mph - 0.04 in Thunderstorm Thunderstorm
6:24 PM 75.9 °F - 70.0 °F 82% 29.96 in 10.0 mi East 3.5 mph - 0.04 in Rain Light Rain
6:54 PM 75.0 °F - 68.0 °F 79% 29.96 in 10.0 mi South 9.2 mph - 0.04 in   Clear
7:54 PM 73.9 °F - 66.0 °F 76% 29.95 in 10.0 mi SW 12.7 mph - N/A   Clear
8:54 PM 72.0 °F - 64.9 °F 78% 29.95 in 10.0 mi SW 6.9 mph - N/A   Clear
9:54 PM 71.1 °F - 64.9 °F 81% 29.96 in 10.0 mi SSW 5.8 mph - N/A   Clear
10:54 PM 71.1 °F - 66.0 °F 84% 29.97 in 10.0 mi SSW 6.9 mph - N/A   Clear
11:54 PM 72.0 °F - 64.0 °F 76% 29.97 in 10.0 mi SW 8.1 mph - N/A   Clear